User: anonymous   Login
Location: Unspecified
(0.0000°N, 0.0000°E)
Time: 12:49:05
(UTC+00:00)
Language:

PERSEUS M2 - Orbit

View from above orbital plane
View from above orbital plane
View from above satellite
View from above satellite

Ground track
Ground track

The orbit data is extracted from the following two-line orbital elements,

1 40037U 14033AD  17229.86413038 +.00000106 +00000-0 +18256-4 0  9992
2 40037 097.9071 138.3053 0015889 102.2500 258.0496 14.86242542170979
Epoch (UTC): 17 August 2017 20:44:20
Eccentricity: 0.0015889
inclination: 97.9071°
perigee height: 598 km
apogee height: 621 km
right ascension of ascending node: 138.3053°
argument of perigee: 102.2500°
revolutions per day: 14.86242542
mean anomaly at epoch: 258.0496°
orbit number at epoch: 17097

The dashed part of the orbit path shows where the satellite is in the earth's shadow,  

DLR